Flag for U.S.A. Weather past 2 weeks in Montgomery, Alabama, U.S.A.

Now
70 °F

Clear.


Feels Like: 64 °F
Forecast: 67 / 84 °F
Wind: 6 mph from East

Location: Maxwell Air Force Base / Montgomery

Current Time: May 28, 2015 at 10:13:35 PM

Latest Report: May 28, 2015 at 9:58 PM


Visibility: 10 mi

Pressure: 30.16 "Hg

Humidity: 97%

Dew point: 69 °F

Location of MontgomeryLocation

Historic Weather in Montgomery — Graph

°F

Montgomery temperature yesterday

Maximum temperature yesterday: 88 °F (at 2:58 PM)
Minimum temperature yesterday: 67 °F (at 5:58 AM)
Average temperature yesterday: 74 °F

Past Weeks' High & Low Weather Summary

 TemperatureHumidityPressure
High89 °F (May 14, 3:58 PM)100% (May 18, 4:03 AM)30.30 "Hg (May 18, 4:03 AM)
Low54 °F (May 22, 5:58 AM)38% (May 14, 10:58 AM)29.93 "Hg (May 20, 3:58 PM)
Average74 °F79%30.14 "Hg
* Reported May 13 7:58 PM — May 28 7:58 PM, Montgomery, Weather by CustomWeather, © 2015

Note: Actual official high and low records may vary slightly from our data, if they occured in-between our weather recording intervals... More about our weather records

Advertising

Montgomery weather history for previous 24 hours

 ConditionsComfort  
Time TempWeatherWind HumidityBarometerVisibility
7:58 PM
Thu, May 28
70 °FLight rain. Fog.6 mph94%30.17 "Hg5 mi
6:58 PM71 °FDrizzle. Partly sunny.8 mph94%30.15 "Hg10 mi
5:58 PM72 °FLight rain. Partly sunny.1 mph93%30.14 "Hg9 mi
4:58 PM72 °FThunderstorms. Broken clouds.9 mph87%30.09 "Hg10 mi
3:58 PM87 °FThunderstorms. Partly sunny.16 mph59%30.09 "Hg10 mi
2:58 PM86 °FPassing clouds.3 mph59%30.08 "Hg10 mi
1:58 PM84 °FPassing clouds.2 mph61%30.10 "Hg10 mi
12:58 PM84 °FBroken clouds.3 mph67%30.14 "Hg10 mi
12:03 PM81 °FPartly sunny.1 mph74%30.16 "Hg10 mi
11:58 AM81 °FScattered clouds.2 mph72%30.16 "Hg10 mi
10:58 AM79 °FPartly sunny.6 mph75%30.17 "Hg10 mi
9:58 AM77 °FPassing clouds.3 mph79%30.17 "Hg10 mi
8:58 AM74 °FPassing clouds.5 mph83%30.18 "Hg10 mi
7:58 AM72 °FPassing clouds.5 mph89%30.19 "Hg10 mi
6:58 AM70 °FPartly sunny.5 mph92%30.16 "Hg10 mi
5:58 AM69 °FClear.3 mph96%30.15 "Hg10 mi
5:03 AM70 °FMostly cloudy.3 mph94%30.13 "Hg10 mi
4:58 AM69 °FMostly cloudy.2 mph95%30.14 "Hg10 mi
3:58 AM70 °FPassing clouds.5 mph95%30.12 "Hg10 mi
2:58 AM70 °FLow clouds.5 mph96%30.11 "Hg10 mi
1:58 AM70 °FClear.3 mph95%30.13 "Hg10 mi
12:58 AM70 °FClear.3 mph96%30.14 "Hg10 mi
11:58 PM
Wed, May 27
70 °FClear.6 mph95%30.16 "Hg10 mi
10:58 PM71 °FOvercast.9 mph94%30.18 "Hg10 mi
Weather by CustomWeather, © 2015

See weather overviewHow to use our weather pages